LAB24 Weather Reports


time (UTC)temp
F
wind
direction
speed
knots
gust
knots
rain 1hr
in
rain 24hr
in
rain mn
in
humidity
%
barometer
mb
20260508014512 57 317 0.0 0.9 0.00 0.01 0.00 76 1007.2
20260508013016 57 332 0.0 1.7 0.00 0.02 0.00 76 1007.3
20260508011526 57 360 0.9 2.6 0.00 0.02 0.00 76 1007.4
20260508010024 57 304 0.0 3.5 0.00 0.03 0.00 76 1007.5
20260508004518 57 295 0.0 1.7 0.00 0.03 0.00 77 1007.7
20260508003016 57 259 0.0 2.6 0.00 0.04 0.00 77 1007.7
20260508001530 57 287 0.9 3.5 0.00 0.04 0.00 76 1008.0
20260508000022 58 255 0.0 1.7 0.00 0.05 0.00 75 1008.1
20260507234528 58 291 0.9 2.6 0.00 0.05 0.00 74 1008.4
20260507233010 58 323 0.9 2.6 0.00 0.05 0.00 73 1008.5
20260507231516 58 244 0.9 3.5 0.00 0.06 0.00 73 1008.7
20260507230020 58 249 0.0 1.7 0.00 0.06 0.00 73 1008.9
20260507224526 59 275 0.9 3.5 0.00 0.06 0.00 71 1009.0
20260507223026 59 323 0.9 3.5 0.00 0.06 0.00 70 1009.0
20260507221515 59 295 1.7 2.6 0.00 0.06 0.00 71 1009.0
20260507220021 59 288 0.9 3.5 0.00 0.06 0.00 71 1009.2
20260507214522 59 311 0.9 2.6 0.00 0.07 0.06 71 1009.3
20260507213029 59 332 1.7 3.5 0.00 0.07 0.06 71 1009.2
20260507211526 59 297 0.9 2.6 0.00 0.07 0.06 72 1009.3
20260507210018 59 276 0.9 2.6 0.00 0.07 0.06 71 1009.3
20260507204519 60 252 0.9 3.5 0.00 0.07 0.06 71 1009.2
20260507203038 60 293 0.9 3.5 0.00 0.07 0.06 70 1009.4
20260507201510 61 325 0.9 3.5 0.00 0.07 0.06 70 1009.5
20260507200012 61 279 0.9 2.6 0.00 0.07 0.06 71 1009.6
20260507194519 61 316 0.9 2.6 0.00 0.07 0.06 72 1009.6
20260507193018 60 269 0.0 1.7 0.00 0.07 0.06 74 1009.6
20260507191520 60 257 0.0 2.6 0.00 0.07 0.06 75 1009.5
20260507190014 60 215 0.9 2.6 0.00 0.07 0.06 74 1009.4
20260507184522 61 271 1.7 2.6 0.00 0.07 0.06 74 1009.4
20260507183019 62 239 0.0 3.5 0.00 0.07 0.06 73 1009.3
20260507181515 64 300 0.9 2.6 0.00 0.07 0.06 70 1009.4
20260507180021 66 259 0.0 0.9 0.00 0.07 0.06 66 1009.5
20260507174511 67 125 0.0 0.9 0.00 0.07 0.06 63 1009.6
20260507173045 68 125 0.0 0.9 0.00 0.07 0.06 60 1009.5
20260507171524 68 125 0.0 1.7 0.00 0.07 0.06 58 1009.5
20260507170022 68 125 0.0 1.7 0.00 0.07 0.06 57 1009.4
20260507164521 69 151 0.9 3.5 0.00 0.07 0.06 56 1009.3
20260507163016 69 239 0.0 2.6 0.00 0.07 0.06 55 1009.2
20260507161522 70 123 0.9 3.5 0.00 0.07 0.06 53 1009.4
20260507160022 71 116 1.7 5.2 0.00 0.07 0.06 51 1009.4
20260507154520 72 182 0.9 4.3 0.00 0.07 0.06 47 1009.3
20260507153024 73 150 0.0 5.2 0.00 0.07 0.06 47 1009.1
20260507151518 74 117 0.9 3.5 0.00 0.07 0.06 47 1009.3
20260507150034 74 103 0.9 3.5 0.00 0.07 0.06 50 1009.3
20260507144524 73 170 0.0 3.5 0.00 0.07 0.06 52 1009.3
20260507143026 72 142 0.9 3.5 0.00 0.07 0.06 53 1009.5
20260507141528 71 104 0.0 3.5 0.00 0.07 0.06 52 1009.8
20260507140021 71 165 0.9 4.3 0.00 0.07 0.06 50 1010.0
20260507134507 71 125 1.7 6.1 0.00 0.07 0.06 47 1010.3
20260507133014 72 111 0.9 3.5 0.00 0.07 0.06 46 1010.4
20260507131516 72 219 0.0 3.5 0.00 0.07 0.06 47 1010.6
20260507130019 72 88 0.9 3.5 0.00 0.07 0.06 48 1010.5
20260507124527 71 95 0.9 3.5 0.00 0.07 0.06 50 1010.7
20260507123035 71 136 0.9 3.5 0.00 0.07 0.06 51 1010.8
20260507121512 71 106 0.0 3.5 0.00 0.07 0.06 51 1011.0
20260507120018 72 95 1.7 3.5 0.00 0.07 0.06 54 1010.9
20260507114521 71 110 0.0 4.3 0.00 0.07 0.06 55 1011.0
20260507113027 71 146 0.9 5.2 0.00 0.07 0.06 57 1011.1
20260507111527 70 115 0.9 4.3 0.00 0.07 0.06 57 1011.0
20260507110015 71 143 1.7 5.2 0.00 0.07 0.06 56 1011.1
20260507104518 69 119 0.0 4.3 0.00 0.07 0.06 59 1011.2
20260507103029 69 109 0.0 3.5 0.00 0.07 0.06 61 1011.3
20260507101533 69 107 0.9 3.5 0.00 0.07 0.06 62 1011.4
20260507100026 69 129 1.7 3.5 0.00 0.07 0.06 63 1011.5
20260507094515 68 178 0.0 5.2 0.00 0.07 0.06 58 1011.5
20260507093020 68 92 0.0 6.1 0.00 0.07 0.06 58 1011.2
20260507091532 66 49 0.0 1.7 0.00 0.07 0.06 63 1011.1
20260507090025 67 71 0.0 3.5 0.00 0.07 0.06 65 1011.2
20260507084526 65 196 0.9 2.6 0.00 0.07 0.06 67 1011.3
20260507083017 64 59 0.0 1.7 0.00 0.07 0.06 69 1011.4
20260507081523 63 169 0.0 4.3 0.00 0.07 0.06 71 1011.4
20260507080016 62 182 0.0 1.7 0.00 0.07 0.06 72 1011.6
20260507080008 62 192 0.0 1.7 0.00 0.07 0.06 72 1011.6
20260507074509 61 53 0.0 2.6 0.00 0.07 0.06 75 1011.6
20260507073003 60 350 0.9 2.6 0.00 0.07 0.06 76 1011.7
20260507071506 59 72 0.0 3.5 0.00 0.08 0.06 80 1011.5
20260507070009 58 323 0.0 3.5 0.00 0.08 0.06 83 1011.3
20260507064514 56 131 0.0 3.5 0.00 0.08 0.06 85 1011.1
20260507063013 55 155 0.0 1.7 0.00 0.09 0.06 90 1010.9
20260507061504 53 247 0.0 0.9 0.00 0.12 0.06 90 1010.8
20260507060012 53 267 0.0 0.9 0.00 0.14 0.06 90 1011.1
20260507054508 53 187 0.0 1.7 0.00 0.14 0.06 91 1011.1
20260507053012 52 205 0.0 1.7 0.00 0.14 0.06 91 1011.2
20260507051520 52 254 0.0 0.9 0.00 0.14 0.06 91 1011.1
20260507050010 52 279 0.0 0.0 0.01 0.15 0.06 91 1011.0
20260507044508 51 279 0.0 0.9 0.01 0.15 0.06 91 1010.9
20260507043010 51 290 0.0 1.7 0.01 0.15 0.06 90 1010.8
20260507041516 51 209 0.0 2.6 0.01 0.15 0.06 91 1010.7
20260507040022 52 275 0.0 1.7 0.00 0.14 0.05 90 1010.6
20260507034504 52 282 0.0 1.7 0.00 0.14 0.05 89 1010.7
20260507033007 52 266 0.0 1.7 0.00 0.14 0.05 89 1010.7
20260507031513 52 288 0.0 1.7 0.00 0.14 0.05 89 1010.6
20260507030019 52 277 0.0 2.6 0.00 0.14 0.05 89 1010.6
20260507024525 51 250 0.0 1.7 0.00 0.14 0.05 89 1010.6
20260507023006 51 286 0.9 2.6 0.01 0.15 0.05 88 1010.6
20260507021510 51 284 0.9 2.6 0.01 0.16 0.05 88 1010.5
20260507020023 51 292 0.9 2.6 0.02 0.18 0.05 89 1010.6